Regional Weather Roundup
Issued by NWS

Home | Current Version | Previous Version | Graphics & Text | Print | Product List | Glossary On
Versions: 1 2 3 4 5 6 7 8 9 10 11 12 13 14 15 16 17 18 19 20 21 22 23 24 25 26 27 28 29 30 31 32 33 34 35 36 37 38 39 40 41 42 43 44 45 46 47 48 49 50
848
ASUS43 KLSX 241510
RWRMO

WEATHER SUMMARY FOR MISSOURI
NATIONAL WEATHER SERVICE SPRINGFIELD MO
1000 AM CDT SUN JUL 24 2016

NOTE: "FAIR" INDICATES FEW OR NO CLOUDS BELOW 12,000 FEET WITH NO
       SIGNIFICANT WEATHER AND/OR OBSTRUCTIONS TO VISIBILITY.
       CURRENT SKY AND/OR WEATHER CONDITIONS ARE NOT AVAILABLE FOR
       CHILLICOTHE AND FARMINGTON.

MOZ001>031-035>038-043-044-053-054-241600-
...NORTHERN AND WESTERN MISSOURI...

CITY           SKY/WX    TMP DP  RH WIND       PRES   REMARKS
KANSAS CTY INT MOSUNNY   87  73  62 CALM      29.94R HX  94
KANSAS C DTWN  SUNNY     88  72  58 W8        29.92R HX  94
LEE`S SUMMIT   CLOUDY    87  72  60 W7        29.95R HX  93
ST JOSEPH      PTSUNNY   84  74  71 SW3       29.92R HX  91
CHILLICOTHE      N/A     89  75  63 W7        29.92S HX  99
KIRKSVILLE     CLOUDY    89  75  63 W12       29.92R HX  99

$$
MOZ066>068-077>081-088>096-101>105-241600-
...SOUTHWEST MISSOURI...

CITY           SKY/WX    TMP DP  RH WIND       PRES   REMARKS
SPRINGFIELD    SUNNY     88  71  57 W9        30.01R HX  94
JOPLIN         CLOUDY    85  74  69 S9        29.99S HX  92
BRANSON        MOSUNNY   86  73  66 W5        30.03S HX  93

$$
MOZ032>034-039>042-045>050-055>058-069>072-241600-
...CENTRAL MISSOURI...

CITY           SKY/WX    TMP DP  RH WIND       PRES   REMARKS
COLUMBIA       SUNNY     89  77  67 SW10      29.96S HX 101
JEFFERSON CITY SUNNY     89  76  65 VRB6      29.94F HX 100
ROLLA          SUNNY     86  75  69 SW8       29.98S HX  95
SEDALIA        CLOUDY    84  75  74 SW7       29.96R HX  92
WHITEMAN AFB   MOSUNNY   84  75  73 SW9       29.94R HX  92
OSAGE BEACH    SUNNY     87  76  69 W7        29.99R HX  97

$$
MOZ051-052-059>065-241600-
...EAST CENTRAL MISSOURI...

CITY           SKY/WX    TMP DP  RH WIND       PRES   REMARKS
ST LOUIS INTL  MOSUNNY   90  75  61 S9        29.97R HX 100
SPIRIT OF STL  SUNNY     89  77  67 S6        29.94S HX 101
ST CHARLES     SUNNY     87  78  74 S7        29.95R HX 100

$$
MOZ072>076-082>087-097>100-106>115-241600-
...SOUTH CENTRAL AND SOUTHEAST MISSOURI...

CITY           SKY/WX    TMP DP  RH WIND       PRES   REMARKS
CAPE GIRARDEAU SUNNY     85  75  72 S6        29.98S HX  93
FARMINGTON     SUNNY     87  77  72 S8        30.01S HX  99
POPLAR BLUFF   PTSUNNY   84  77  79 S8        29.98S HX  94
WEST PLAINS    SUNNY     84  72  67 VRB3      30.04S

$$




USA.gov is the U.S. government's official web portal to all federal, state and local government web resources and services.